Location: West Sayville
(40.7279°N, 73.0976°W)
Time: 04:27:46
(UTC+00:00)

Cosmos 1892 - Pass Details

Date: 29 October 2020
Orbit: 504 x 524 km, 82.5° (Epoch: 29 November)

Event Time Altitude Azimuth Distance (km) Brightness Sun altitude
Rises 23:15:40 0° 349° (N) 2,664 6.4 -16.4°
Reaches altitude 10° 23:17:49 10° 348° (NNW) 1,772 5.5 -16.8°
Maximum altitude 23:21:41 70° 264° (W) 562 3.0 -17.6°
Drops below altitude 10° 23:25:31 10° 181° (S) 1,756 5.4 -18.3°
Sets 23:27:39 0° 179° (S) 2,638 6.3 -18.7°
